EHI
0 0 0 0 0 0 0 0 0 0 0 0 0 0 0 0 0 0 0 0 0 0 0 0 0 0 0 0 0 0 0 0 0 0 0 0 0 0 0 0 0 0 0
0 0 0 0 0 0 0 1 1 0 0 0 0 0 0 0 0 0 0 0 0 0 0 0 0 0 0 0 0 0 0 0 0 0 0 0 0 0 0 0 0 0 0
0 0 0 1 1 0 1 3 3 1 0 0 0 0 0 0 0 0 0 0 0 0 0 0 0 0 0 0 0 0 0 0 0 0 0 0 0 0 0 0 0 0 0
0 0 1 3 3 1 1 2 2 1 0 0 0 0 0 0 0 0 0 0 0 0 0 0 0 0 0 0 0 0 0 0 0 0 0 0 0 0 0 0 0 0 0
0 0 3 6 6 3 1 0 0 0 0 0 0 0 0 0 0 0 0 0 0 0 0 0 0 0 0 0 0 0 0 0 0 0 0 0 0 0 0 0 0 0 0
1 2 6 10 9 4 1 0 0 0 0 0 0 0 0 0 0 0 0 0 0 0 0 0 0 0 0 0 0 0 0 0 0 0 0 0 0 0 0 0 0 0 0
5 6 10 13 11 3 0 0 0 0 0 0 0 0 0 0 0 0 0 0 0 0 0 0 0 0 0 0 0 0 0 0 0 0 0 0 0 0 0 0 0 0 0
9 10 11 12 7 2 0 0 0 0 0 0 0 0 0 0 0 0 0 0 0 0 0 0 0 0 0 0 0 0 0 0 0 0 0 0 0 0 0 0 0 0 0
7 8 8 5 2 0 0 0 0 0 0 0 0 0 0 0 0 0 0 0 0 0 0 0 0 0 0 0 0 0 0 0 0 0 0 0 0 0 0 0 0 0 0
2 2 2 1 0 0 0 0 0 0 0 0 0 0 0 0 0 0 0 0 0 0 0 0 0 0 0 0 0 0 0 0 0 0 0 0 0 0 0 0 0 0 0
0 0 0 0 0 0 0 0 0 0 0 0 0 0 0 0 0 0 0 0 0 0 0 0 0 0 0 0 0 0 0 0 0 0 0 0 0 0 0 0 0 0 0
0 0 0 0 0 0 0 0 0 0 0 0 0 0 0 0 0 0 0 0 0 0 0 0 0 0 0 0 0 0 0 0 0 0 0 0 0 0 0 0 0 0 0
0 0 0 0 0 0 0 0 0 0 0 0 0 0 0 0 0 0 0 0 0 0 0 0 0 0 0 0 0 0 0 0 0 0 0 0 0 0 0 0 0 0 0
0 0 0 0 0 0 0 0 0 0 0 0 0 0 0 0 0 0 0 0 0 0 0 0 0 0 0 0 0 0 0 0 0 0 0 0 0 0 0 0 0 0 0
0 0 0 0 0 0 0 0 0 0 0 0 0 0 0 0 0 0 0 0 0 0 0 0 0 0 0 0 0 0 0 0 0 0 0 0 0 0 0 0 0 0 0
0 0 0 0 0 0 0 0 0 0 0 0 0 0 0 0 0 0 0 0 0 0 0 0 0 0 0 0 0 0 0 0 0 0 0 0 0 0 0 0 0 0 0
0 0 0 0 0 0 0 0 0 0 0 0 0 0 0 0 0 0 0 0 0 0 0 0 0 0 0 0 0 0 0 0 0 0 0 0 0 0 0 0 0 0 0
0 0 0 0 0 0 0 0 0 0 0 0 0 0 0 0 0 0 0 0 0 0 0 0 0 0 0 0 0 0 0 0 0 0 0 0 0 0 0 0 0 0 0
0 0 0 0 0 0 0 0 0 0 0 0 0 0 0 0 0 0 0 0 0 0 0 0 0 0 0 0 0 0 0 0 0 0 0 0 0 0 0 0 0 0 0
0 0 0 0 0 0 0 0 0 0 0 0 0 0 0 0 0 0 0 0 0 0 0 0 0 0 0 0 0 0 0 0 0 0 0 0 0 0 0 0 0 0 0
0 0 0 0 0 0 0 0 0 0 0 0 0 0 0 0 0 0 0 0 0 0 0 0 0 0 0 0 0 0 0 0 0 0 0 0 0 0 0 0 0 0 0
0 0 0 0 0 0 0 0 0 0 0 0 0 0 0 0 0 0 0 0 0 0 0 0 0 0 0 0 0 0 0 0 0 0 0 0 0 0 0 0 0 0 0
0 0 0 0 0 0 0 0 0 0 0 0 0 0 0 0 0 0 0 0 0 0 0 0 0 0 0 0 0 0 0 0 0 0 0 0 0 0 0 0 0 0 0
0 0 0 0 0 0 0 0 0 0 0 0 0 0 0 0 0 0 0 0 0 0 0 0 0 0 0 0 0 0 0 0 0 0 0 0 0 0 0 0 0 0 0
0 0 0 0 0 0 0 0 0 0 0 0 0 0 0 0 0 0 0 0 0 0 0 0 0 0 0 0 0 0 0 0 0 0 0 0 0 0 0 0 0 0 0
0 0 0 0 0 0 0 0 0 0 0 0 0 0 0 0 0 0 0 0 0 0 0 0 0 0 0 0 0 0 0 0 0 0 0 0 0 0 0 0 0 0 0
Wind_Speed
7 9 15 16 15 15 14 14 14 14 14 14 13 12 11 10 9 9 10 11 12 14 14 14 14 14 14 14 15 15 15 15 14 13 12 12 13 13 12 11 9 6 12
10 10 16 15 15 15 15 15 15 14 14 14 13 11 10 10 10 10 11 13 14 14 14 14 14 14 14 14 14 14 14 13 12 11 10 8 10 11 11 10 9 7 11
13 11 13 15 15 15 16 16 16 15 15 14 12 11 10 10 11 12 13 15 15 15 14 14 13 13 13 13 13 12 11 9 8 7 6 3 5 10 10 9 9 10 10
14 10 11 15 15 16 17 17 16 16 15 13 12 11 10 11 13 13 14 15 15 14 14 13 12 12 11 11 10 10 9 8 6 5 2 2 2 9 10 10 9 9 9
11 8 11 15 16 17 17 17 16 15 14 13 12 11 11 13 14 15 15 15 14 14 13 12 11 10 10 9 9 9 9 9 9 7 4 3 3 9 11 11 11 11 10
9 8 10 15 16 16 16 16 16 15 14 13 12 11 12 14 14 15 14 14 13 13 12 11 10 9 8 7 7 8 9 10 9 5 4 4 4 11 13 13 12 12 12
10 8 10 15 16 16 16 16 16 15 14 13 12 12 13 14 14 14 13 12 12 12 11 10 9 8 6 5 6 8 9 10 6 5 4 4 6 13 13 12 12 12 13
12 9 10 15 15 15 15 15 15 15 14 13 12 12 13 13 13 13 12 12 11 11 10 10 9 7 5 4 4 6 8 7 7 5 4 4 8 11 11 11 11 11 11
11 10 7 9 11 13 14 14 14 14 14 13 12 11 11 11 11 11 11 11 11 10 9 9 8 7 5 3 2 4 6 7 5 3 5 3 9 11 10 9 9 9 9
9 9 7 7 7 7 9 12 13 12 12 12 11 10 10 9 9 9 8 9 9 9 9 8 7 6 5 3 2 2 5 6 3 4 3 5 10 10 9 9 8 8 9
8 7 7 7 6 6 7 9 10 11 11 11 9 11 9 5 5 5 5 7 7 8 8 8 7 6 4 2 2 1 4 2 3 3 3 8 10 10 9 8 8 8 8
9 8 7 7 7 7 7 6 5 5 6 5 5 6 4 4 4 5 5 7 7 7 7 7 7 5 2 1 2 1 1 3 3 3 3 10 10 10 9 8 8 8 8
9 9 8 8 7 7 5 5 3 3 4 4 6 6 4 4 3 3 2 4 4 5 4 4 4 2 2 2 2 1 2 3 3 3 4 10 11 10 10 9 8 8 8
8 8 8 8 7 7 6 5 5 4 4 4 5 6 4 3 3 3 3 4 3 3 3 3 2 3 4 4 4 3 3 3 3 3 4 10 11 11 10 10 9 9 9
7 8 8 9 8 7 6 5 6 5 6 6 6 7 7 5 5 5 5 4 5 4 4 4 4 5 5 5 5 5 4 5 5 5 4 10 11 12 12 11 11 10 10
7 8 7 8 8 8 7 6 6 6 6 6 6 8 9 7 6 6 6 6 6 6 6 6 6 6 5 4 5 6 5 5 6 6 5 7 12 12 13 13 12 12 11
7 7 7 7 7 8 8 7 6 6 6 6 7 8 10 8 7 7 7 7 7 7 7 5 6 5 5 5 6 6 5 5 6 7 6 5 6 11 14 15 14 14 13
6 6 7 6 7 7 6 6 5 5 6 6 6 7 10 10 9 7 7 7 7 6 6 6 5 5 5 5 5 4 4 4 6 7 6 6 5 5 10 15 15 15 15
5 5 5 4 5 6 6 5 5 4 5 5 5 5 8 10 10 8 7 6 7 6 6 7 6 5 5 5 5 5 4 4 5 7 7 8 7 6 6 11 14 14 15
4 3 3 2 2 3 3 3 3 3 4 4 4 5 7 7 8 7 6 7 6 6 6 6 6 6 5 5 5 5 4 4 4 6 8 7 7 8 7 7 7 9 14
5 5 4 3 1 1 1 2 2 3 4 3 4 5 6 6 7 7 6 6 6 7 8 8 6 6 6 3 2 2 3 3 5 5 5 6 8 8 8 8 6 5 6
5 5 5 4 2 2 1 1 2 2 3 4 3 4 5 5 6 5 6 6 6 6 7 8 7 5 5 5 5 3 3 3 5 6 5 7 8 7 8 9 7 7 6
6 5 4 4 3 2 1 0 1 1 1 1 2 3 4 5 5 6 7 7 6 7 7 9 8 8 7 5 5 5 5 7 4 3 5 7 7 7 7 7 9 9 9
4 4 4 4 4 3 3 2 1 0 1 2 2 3 4 4 5 6 7 7 7 7 8 8 8 8 7 6 4 5 4 4 4 3 3 4 6 8 8 8 9 10 10
4 4 4 4 5 4 4 3 2 1 1 2 2 3 4 4 4 5 6 6 7 6 7 8 7 8 8 7 6 4 5 3 3 3 5 3 3 5 7 8 7 8 10
4 4 4 5 5 5 5 4 3 2 2 3 3 3 3 3 3 4 4 4 5 5 6 7 7 8 8 9 7 6 5 5 6 6 9 5 4 3 3 4 6 6 7
Wind_Direction
154 158 152 148 145 143 141 139 134 130 125 119 112 107 104 104 108 112 113 110 104 98 92 90 88 87 87 88 90 90 88 85 84 83 79 74 75 82 85 79 73 75 92
146 153 150 147 145 143 139 134 130 127 122 117 112 109 109 111 113 115 117 113 107 101 96 94 91 90 90 92 95 94 91 89 87 86 77 70 77 82 83 82 83 82 86
142 149 148 145 144 140 136 132 129 125 121 117 114 112 114 118 119 119 114 112 108 103 100 98 95 93 94 96 97 95 92 92 97 95 82 58 79 88 88 86 86 84 82
142 146 148 144 143 140 137 133 130 127 124 120 117 115 116 120 121 119 115 112 109 106 105 103 101 99 98 98 97 91 81 82 99 114 91 50 66 93 93 91 89 86 82
135 141 147 144 143 141 138 135 132 130 127 125 123 120 119 122 121 117 115 114 112 112 111 110 108 105 102 98 92 80 73 82 94 99 90 67 64 93 91 90 88 84 81
127 134 147 144 143 141 139 137 135 133 132 131 130 128 123 123 121 119 119 119 119 120 119 117 116 113 107 99 88 74 72 87 95 95 87 76 75 92 89 86 83 82 79
131 136 147 145 145 143 142 140 139 138 138 139 139 135 128 127 125 125 126 128 129 129 129 127 126 124 119 108 90 75 78 95 104 100 93 87 89 92 88 85 83 81 79
138 140 147 147 147 147 146 145 144 145 146 146 146 142 136 133 134 135 137 139 140 140 140 139 139 140 139 129 98 84 86 101 112 111 104 99 102 98 94 90 87 84 82
141 142 145 150 150 151 150 150 150 150 151 151 151 147 141 140 144 147 150 152 152 151 150 150 152 155 161 162 122 88 91 108 122 130 122 117 113 106 101 98 96 93 91
141 145 144 146 149 149 152 154 154 154 154 154 150 144 144 148 153 157 161 165 162 161 161 162 164 169 177 188 179 102 101 117 138 139 133 134 124 118 113 110 107 104 101
147 151 148 147 148 147 153 160 157 157 159 155 151 152 149 151 156 163 174 176 173 171 173 176 179 182 189 221 235 116 97 126 152 152 153 146 136 130 126 123 119 115 112
163 167 162 160 159 157 165 155 157 159 159 155 156 159 156 160 171 177 189 188 184 183 187 192 195 194 189 268 291 343 107 152 164 169 175 158 149 143 140 137 133 129 125
170 173 176 173 169 169 164 159 163 158 159 163 168 172 169 170 181 187 182 194 193 192 195 207 206 207 218 242 261 251 186 171 180 188 185 169 160 156 153 151 148 144 141
167 176 180 180 175 178 171 171 172 169 173 179 186 184 177 180 191 193 194 197 194 192 194 200 204 220 234 245 246 247 217 181 184 187 194 179 171 167 166 166 163 160 156
173 176 174 174 175 176 175 179 181 184 186 190 192 196 192 191 195 197 202 202 203 197 197 202 212 220 228 237 239 235 223 194 190 188 192 187 179 176 176 178 178 174 170
189 186 177 174 173 171 177 183 185 190 193 194 198 203 202 201 196 195 201 204 208 206 205 205 210 217 224 222 228 225 218 196 195 193 195 193 188 184 185 187 188 186 182
199 197 190 187 178 176 181 189 189 192 194 200 204 205 207 206 200 196 201 206 209 207 206 208 214 218 226 224 228 224 214 201 195 198 196 197 195 193 192 195 196 194 192
191 198 203 200 189 191 192 195 195 192 194 201 206 206 209 210 206 201 205 210 206 204 205 208 210 214 223 222 223 223 215 204 201 202 200 200 198 198 202 203 202 201 199
174 182 189 197 196 203 204 204 207 205 205 205 204 208 212 212 210 208 214 213 200 204 207 210 210 205 216 221 222 224 220 212 205 204 205 206 205 201 200 209 206 204 204
117 123 144 167 205 211 209 214 223 230 232 225 218 217 214 215 213 213 221 221 207 209 214 211 210 208 210 210 218 226 228 227 215 210 208 208 210 209 204 206 203 206 204
79 81 83 89 55 94 156 195 217 232 238 239 235 231 223 220 217 215 224 223 215 219 222 215 211 214 220 180 180 251 277 249 236 226 214 212 214 212 206 207 200 195 203
79 74 69 63 56 63 124 189 210 228 240 243 250 248 240 235 227 219 220 224 220 224 229 222 212 212 212 180 176 184 265 289 256 226 209 215 217 210 211 209 202 197 193
70 64 61 51 50 47 39 80 16 8 334 311 275 265 261 255 247 238 232 229 225 220 228 226 217 215 221 206 190 174 191 228 252 268 230 222 213 210 212 206 205 201 197
82 63 51 41 39 34 41 64 86 135 254 262 271 275 287 277 265 255 247 239 235 229 229 229 222 219 218 215 212 222 214 187 193 255 263 233 217 215 212 210 207 205 202
86 66 49 44 37 28 35 45 56 29 270 288 302 302 298 292 281 270 258 251 245 239 236 233 226 221 218 218 204 201 221 232 217 220 259 257 242 229 217 213 210 208 204
73 57 47 47 36 27 33 34 37 14 339 334 329 319 310 303 301 302 287 268 258 251 246 242 235 227 225 224 218 202 193 197 205 210 235 239 237 245 230 220 214 208 200